2023-001L (55019 NORAD) Tracking and Keplerian Element Data

This shows tracking and keplerian element data for the satellite.

Feedback or suggestion? Click here.




ElementValue
Catalog55019
Name2023-001L
Epoch Orbit169
Epoch Day13.78748377
Epoch Year2023
RAAN75.7328
Inclination97.5044
Eccentricity0.0011383
Argument of Perigee186.1988
Mean Anonmoly173.9104
Mean Motion15.1231815
Decay Rate0.00015092
L11 55019U 23001L 23013.78748377 .00015092 00000+0 87254-3 0 9991
L22 55019 97.5044 75.7328 0011383 186.1988 173.9104 15.12318150 1698



Live tracking and technical data element details for 2023-001L (NORAD 55019). 2023-001L can be tracked NOW for your location showing map with azimuth and elevation plus other details from your city location.







IsCatalogInMostPopularTable: catalog: 55019, numindb: 3
Update: records affected: 1



GetName: 55019 2023-001L

Hit Count: updated at: Tue, 07 Feb 2023 14:35:44 GMT